Theta_e
347 347 349 352 352 351 349 345 343 344 345 344 343 341 340 340 342 344 348 349 349 350 353 353 353 351 344 344 344 349 345 349 350 350 348 349 350 349 349 351 350 348 350
347 348 349 351 352 352 347 346 349 343 343 343 347 346 345 341 342 349 350 350 352 353 353 354 353 351 344 344 343 341 341 343 352 354 351 350 349 351 351 351 350 347 349
347 348 349 350 352 351 346 348 349 348 347 346 349 348 351 346 348 352 352 352 351 354 353 354 348 346 346 345 345 345 347 349 342 341 345 347 350 351 350 350 350 350 350
346 347 348 349 349 349 344 345 348 350 352 352 352 351 346 345 350 352 353 349 352 353 354 353 353 353 352 347 347 346 346 348 349 345 341 342 346 349 349 349 349 348 348
347 345 346 348 345 346 348 351 349 351 351 352 350 351 348 349 348 347 345 348 353 353 353 353 350 345 342 344 345 344 347 349 348 348 345 344 348 349 349 346 346 344 340
345 346 348 348 351 346 346 350 351 353 352 352 352 351 347 350 351 351 352 353 354 351 353 345 340 336 334 338 344 347 348 349 348 346 343 342 344 349 347 345 346 347 347
346 347 350 350 351 349 348 350 353 350 352 351 349 352 352 353 352 352 353 354 353 353 346 341 336 336 340 345 346 346 349 349 344 345 339 340 342 346 348 347 345 343 342
345 349 350 350 350 350 350 351 352 351 351 352 353 353 353 353 350 352 354 354 354 352 344 338 334 340 344 345 343 347 350 349 344 340 342 343 343 346 347 346 345 345 346
345 345 347 349 350 349 350 351 352 351 346 351 352 352 353 353 353 353 353 354 353 353 343 330 329 334 340 341 340 345 347 347 345 342 343 343 343 343 343 342 343 343 344
342 344 348 349 347 347 349 350 351 351 351 352 352 352 353 354 353 353 351 352 352 349 340 336 331 331 333 337 344 346 347 348 348 344 343 342 342 343 344 344 343 343 342
342 341 342 345 346 345 350 350 348 347 349 352 352 353 352 353 349 349 346 344 345 344 341 339 338 339 337 340 342 343 346 348 348 346 342 343 343 346 345 345 344 342 340
342 343 342 341 342 344 345 344 344 346 344 342 345 349 348 350 348 348 342 342 343 343 341 338 338 340 338 342 343 344 345 348 347 344 341 342 343 346 345 345 345 341 339
341 341 340 338 341 343 344 341 342 340 338 341 344 345 348 348 349 347 338 340 342 341 341 342 343 344 347 340 340 342 346 348 347 342 341 340 342 341 341 342 344 342 340
340 340 336 338 340 342 342 341 339 339 337 344 346 347 350 350 350 345 339 339 339 339 339 340 343 343 339 336 339 342 343 347 346 342 342 341 342 341 342 343 343 343 342
342 340 338 339 340 340 341 338 337 338 341 344 341 341 344 348 350 346 343 340 340 342 345 346 347 347 347 345 345 346 344 346 345 343 343 341 341 340 343 345 344 344 343
341 340 339 336 339 340 341 337 338 338 340 342 344 344 343 345 346 345 345 344 346 346 345 345 347 346 346 347 346 346 345 346 346 345 345 344 342 340 342 343 344 343 344
343 341 339 339 339 337 339 339 338 339 340 342 344 344 344 344 344 344 345 345 346 347 350 348 346 349 347 347 345 346 346 345 345 346 346 343 341 343 343 343 344 342 343
344 343 342 340 338 335 338 338 338 339 340 343 345 344 339 343 344 344 345 345 347 347 347 347 346 345 346 347 347 345 345 345 345 346 348 348 346 345 344 343 343 343 343
346 345 344 343 342 336 336 339 341 342 343 344 345 344 336 341 342 341 340 345 346 346 347 346 346 346 345 346 344 344 344 345 342 341 346 349 349 348 345 344 342 342 342
347 346 344 343 345 343 343 344 345 346 345 345 346 343 339 340 338 336 338 344 347 346 347 343 343 351 350 345 343 342 342 341 340 337 345 347 348 350 346 346 343 342 342
346 347 344 344 346 345 343 345 346 346 345 344 344 339 341 338 335 338 338 345 346 346 348 347 349 351 348 347 343 345 343 342 341 335 342 348 351 350 349 349 345 345 344
345 346 345 346 345 345 345 346 344 344 345 346 343 339 342 344 343 333 334 336 346 346 350 350 350 351 349 345 347 344 338 335 335 337 340 344 344 349 351 352 350 348 347
343 344 345 347 344 343 344 346 347 347 348 348 346 344 344 346 342 343 336 347 350 347 350 349 350 348 345 345 346 346 339 333 334 337 339 338 338 338 338 343 348 350 350
344 344 345 344 344 346 347 346 345 346 348 347 347 345 346 347 346 346 341 350 351 350 346 350 352 349 348 342 341 343 341 335 336 340 341 340 337 342 336 342 337 351 350
346 346 346 345 344 344 344 343 346 348 346 347 346 347 349 348 349 348 346 352 351 347 346 350 351 351 350 349 343 335 334 335 339 343 343 342 342 341 343 339 340 341 349
348 349 346 346 345 345 345 342 346 347 346 347 346 347 347 349 349 350 350 349 348 347 347 350 349 351 352 351 347 343 344 345 347 343 338 338 341 341 344 343 341 345 350
Wind_Speed
17 18 18 16 17 17 17 17 17 16 15 15 15 14 15 15 14 14 15 15 16 14 15 15 14 14 16 17 17 18 19 19 19 17 16 15 15 16 16 15 15 15 15
22 19 20 17 18 17 17 16 15 15 15 15 15 14 13 13 13 14 14 15 14 14 14 14 14 14 16 16 18 18 20 18 18 17 16 15 15 15 15 15 14 14 13
22 20 19 19 18 17 17 16 15 14 15 14 14 14 12 13 13 13 13 14 14 14 14 13 14 14 15 16 17 18 17 19 17 14 14 16 16 14 14 14 13 13 12
22 21 20 18 18 17 17 16 15 15 15 15 15 14 15 14 13 12 13 14 14 14 13 13 13 12 13 14 15 13 12 12 12 12 16 16 14 13 13 13 14 12 11
21 21 20 18 18 17 17 16 16 16 15 15 15 15 15 15 14 14 14 14 14 14 14 12 11 11 12 12 12 10 7 5 6 8 12 14 15 12 12 12 12 10 10
20 20 18 18 17 17 17 16 16 16 15 16 17 16 16 16 16 16 14 13 13 12 12 11 10 10 11 11 9 8 8 5 9 14 13 13 14 13 11 10 10 10 9
21 20 18 19 17 16 16 16 16 17 16 16 18 16 15 15 15 14 13 14 12 10 9 10 10 11 12 10 7 7 8 9 14 11 13 12 13 13 11 11 10 9 8
23 21 19 18 16 15 16 16 16 17 18 17 17 16 16 15 16 16 14 11 10 8 8 9 11 12 11 9 8 9 10 12 9 12 11 11 11 11 10 9 9 8 7
20 19 18 17 16 14 14 15 16 17 18 16 16 16 16 16 15 14 12 10 9 7 8 9 11 10 8 5 5 7 10 6 7 11 12 11 10 10 9 8 7 7 6
21 19 19 18 19 19 16 15 15 16 17 16 15 15 16 14 13 13 12 11 9 9 9 8 8 5 3 2 4 3 3 5 7 10 10 9 9 9 8 7 6 6 5
21 20 19 18 18 18 19 17 17 17 18 17 16 13 14 14 13 11 11 10 10 8 7 6 5 5 4 1 3 4 3 2 6 8 10 10 9 9 8 8 7 6 6
25 21 20 20 18 18 18 17 17 18 19 18 18 15 14 13 13 9 10 10 8 7 5 6 6 6 4 3 6 6 6 2 8 9 10 10 10 10 9 8 7 7 7
24 20 19 19 19 18 18 19 18 17 17 14 14 14 13 12 10 8 10 10 9 7 5 4 3 2 2 2 1 6 9 5 8 6 7 11 10 9 9 7 7 7 7
26 22 21 17 17 19 19 17 16 16 16 15 13 11 10 8 11 8 9 8 8 6 5 4 5 5 2 1 5 5 8 8 8 6 3 12 10 8 6 6 7 7 6
24 25 23 18 16 20 19 17 17 19 18 12 9 6 3 7 5 6 6 7 5 4 7 9 10 9 7 6 6 4 8 9 10 12 5 7 9 6 6 5 6 6 6
23 25 23 20 19 19 20 19 17 17 15 10 6 3 4 6 6 6 7 7 9 10 13 15 8 9 9 12 10 8 5 8 12 15 8 7 8 7 6 5 6 6 5
29 25 22 21 21 20 20 19 17 15 12 9 6 8 5 6 8 11 11 10 6 9 7 12 12 8 10 15 15 11 8 7 10 6 9 10 10 7 7 6 6 5 3
30 27 21 21 17 22 20 19 17 17 14 10 9 10 15 10 10 10 8 8 5 7 4 3 2 4 10 8 17 10 5 5 11 7 4 4 7 8 7 8 6 4 3
35 31 26 22 21 21 19 18 17 16 14 12 12 16 13 11 14 14 11 9 4 4 1 3 5 1 8 8 9 6 2 10 16 16 9 6 5 5 8 8 7 5 3
37 33 29 27 24 22 18 15 14 13 15 12 15 20 15 16 15 11 14 10 3 1 2 5 1 7 10 4 6 13 12 10 8 14 15 9 7 7 9 10 6 5 4
33 35 34 31 27 24 22 19 17 18 14 13 18 19 16 11 10 12 19 10 4 2 3 7 1 4 9 7 12 6 2 1 4 10 12 14 12 7 6 9 8 7 5
35 36 36 35 29 26 23 17 13 17 14 22 23 20 15 11 6 4 23 11 5 2 4 1 2 3 5 8 3 4 3 3 1 6 8 11 11 11 6 8 6 8 9
31 36 35 39 32 30 25 19 15 12 12 24 28 25 18 15 11 8 12 9 6 6 4 4 3 1 3 6 6 3 2 3 5 5 1 4 5 3 4 6 8 9 8
33 36 36 35 35 31 30 26 23 14 14 23 34 27 24 20 18 14 14 11 9 8 5 5 3 4 3 4 5 5 5 4 2 3 6 6 6 5 1 5 4 10 6
30 33 36 34 35 31 27 26 23 18 15 20 21 25 23 26 23 17 15 12 12 12 7 6 4 5 4 3 6 5 3 2 2 1 3 6 9 9 9 9 6 11 10
31 33 34 34 34 31 27 26 24 21 20 19 27 29 29 27 24 22 21 19 15 13 12 9 8 10 7 6 3 3 1 1 0 3 4 4 7 15 12 11 5 5 8
Wind_Direction
150 146 141 132 130 130 126 126 126 126 126 128 127 133 136 133 127 127 123 114 110 114 112 111 112 112 110 111 116 120 122 126 125 123 124 122 128 123 124 127 127 130 131
146 147 147 141 137 137 133 132 131 133 135 133 129 131 136 140 137 131 123 117 119 114 112 113 110 108 108 111 112 119 122 124 118 115 115 113 124 135 124 126 126 130 134
144 145 146 145 140 140 139 139 138 137 135 133 129 126 127 140 137 128 123 123 118 115 115 113 114 112 113 115 118 117 122 120 112 118 128 124 119 122 125 125 128 131 134
144 145 145 147 145 144 143 142 139 135 131 127 125 121 122 127 125 125 125 121 120 120 117 118 114 119 120 123 116 118 121 131 118 108 117 118 120 123 126 131 133 134 138
147 146 145 146 144 143 141 141 139 133 132 128 127 123 124 126 125 123 129 127 126 121 123 122 120 120 125 123 121 114 105 117 162 145 128 127 126 123 129 136 132 129 148
146 143 148 145 144 145 139 141 137 133 130 130 126 125 126 124 124 128 132 126 121 121 119 117 116 125 129 124 115 103 89 90 141 143 133 130 124 129 130 131 132 144 147
148 145 148 146 145 145 147 145 139 140 135 131 125 127 126 130 126 129 128 127 125 129 123 110 124 134 137 129 111 82 119 138 143 141 134 128 126 131 133 133 134 139 143
152 153 150 149 146 148 150 151 148 141 139 135 130 133 133 131 131 130 127 125 124 123 116 121 139 147 144 132 102 82 112 145 142 139 137 134 137 135 137 137 137 142 144
159 154 154 151 152 149 153 149 147 143 138 136 135 137 134 132 128 127 131 130 127 123 119 125 142 156 146 132 82 93 115 147 132 149 144 145 146 144 140 140 142 142 145
156 150 152 157 161 154 150 145 140 140 137 134 135 138 136 134 131 136 139 136 130 127 122 127 132 137 119 102 81 58 135 213 197 172 164 155 159 153 147 147 144 146 143
157 164 166 163 160 157 151 147 146 143 137 133 129 132 137 136 141 141 145 139 133 126 125 123 120 97 109 179 210 231 288 278 211 196 186 172 170 166 158 157 149 145 139
163 168 170 167 164 161 159 152 145 142 142 140 141 145 142 143 145 143 151 143 134 130 136 123 129 108 152 270 259 275 268 285 221 218 216 192 176 168 168 159 150 148 145
167 166 169 172 172 170 159 152 146 148 146 144 141 141 147 152 155 171 155 155 149 153 159 155 188 182 265 266 349 269 252 220 210 218 244 212 193 177 173 169 163 161 151
172 175 173 170 172 179 162 158 153 163 156 147 142 158 171 175 168 175 173 167 161 176 212 249 261 258 332 133 327 39 183 202 200 211 190 220 205 200 189 179 166 164 156
180 175 177 172 173 177 172 167 166 164 161 157 143 133 127 183 195 197 209 207 213 249 269 284 291 260 256 265 349 23 184 200 216 233 208 211 208 197 183 166 167 156 158
183 175 178 179 171 175 179 178 174 175 180 171 153 167 192 192 203 228 225 228 274 279 275 280 288 276 262 258 286 294 225 220 227 224 223 193 198 204 181 152 150 141 152
188 176 182 181 179 180 181 184 190 191 198 176 174 182 204 228 223 224 232 244 263 264 286 277 258 261 270 269 267 274 298 292 299 279 265 236 216 190 166 154 142 124 124
188 182 177 183 184 180 186 189 190 192 196 187 188 213 217 207 207 204 199 206 214 240 344 334 168 311 296 252 246 265 282 93 76 62 78 236 197 201 174 151 134 128 98
185 179 178 182 183 182 185 189 194 206 213 223 228 219 202 193 206 215 203 184 211 247 309 332 128 360 26 232 256 270 38 105 89 66 67 93 149 149 184 163 135 132 112
183 179 178 182 189 182 183 181 199 222 226 232 231 209 206 201 214 192 172 158 179 161 8 305 221 54 51 66 106 130 101 96 94 62 62 59 128 131 178 178 157 150 133
178 184 184 188 190 190 189 204 223 223 215 223 206 200 188 197 193 214 163 154 121 146 337 346 285 16 51 73 147 136 195 129 42 57 73 78 126 158 161 171 189 182 183
177 185 187 191 190 191 187 200 200 183 213 211 202 192 198 202 207 255 180 184 237 259 271 235 307 51 56 54 120 116 10 308 50 71 81 97 98 100 149 190 200 198 199
183 186 188 189 191 189 191 192 205 205 200 184 192 201 208 203 193 171 193 179 160 221 202 186 227 116 86 84 77 160 92 238 321 341 9 113 88 92 145 205 218 202 206
187 188 189 191 189 193 193 200 205 200 178 193 188 207 198 205 197 199 197 200 204 218 212 172 220 208 160 187 123 110 106 133 154 331 277 296 289 300 343 195 207 200 196
186 189 191 195 192 194 201 206 205 217 205 190 200 198 208 203 207 209 221 217 223 233 226 217 205 212 216 198 207 199 190 159 195 126 287 319 305 297 287 282 259 196 212
188 188 192 190 198 199 204 209 212 219 216 197 206 211 206 204 210 217 219 223 235 231 217 217 227 222 229 233 206 221 210 131 38 218 249 290 290 293 296 291 263 237 215